This is the latest recevied weather packets stored in our database for station/object N5PRN. If no packets are shown the sender has not sent any weather packets the latest 10 day(s).
| Time | Temp. | Humidity | Pressure | Rain* | Wind** | Luminosity | Snow |
|---|---|---|---|---|---|---|---|
| 1778013791 | 25° C | 87% | 1009.2 hPa | 0 mm | - | 89 W/m² | - |
| 1778013488 | 25° C | 87% | 1009.3 hPa | 0 mm | - | 153 W/m² | - |
| 1778013185 | 25° C | 87% | 1009.4 hPa | 0 mm | - | 141 W/m² | - |
| 1778012881 | 25° C | 87% | 1009.4 hPa | 0 mm | - | 140 W/m² | - |
| 1778012577 | 25° C | 87% | 1009.6 hPa | 0 mm | - | 133 W/m² | - |
| 1778012273 | 25° C | 87% | 1009.3 hPa | 0 mm | - | 98 W/m² | - |
| 1778011971 | 25° C | 86% | 1009.4 hPa | 0 mm | - | 88 W/m² | - |
| 1778011669 | 25° C | 86% | 1009.3 hPa | 0 mm | - | 115 W/m² | - |
| 1778011360 | 25° C | 85% | 1009.2 hPa | 0 mm | - | 78 W/m² | - |
| 1778011055 | 25° C | 85% | 1009.4 hPa | 0 mm | - | 146 W/m² | - |
| 1778010753 | 25° C | 85% | 1009.3 hPa | 0 mm | - | 206 W/m² | - |
| 1778010445 | 25° C | 85% | 1009.5 hPa | 0 mm | - | 327 W/m² | - |
| 1778010141 | 25° C | 85% | 1009.6 hPa | 0 mm | - | 249 W/m² | - |
| 1778009837 | 25° C | 86% | 1009.5 hPa | 0 mm | - | 233 W/m² | - |
| 1778009535 | 24.44° C | 86% | 1009.6 hPa | 0 mm | - | 208 W/m² | - |
| 1778009233 | 24.44° C | 87% | 1009.7 hPa | 0 mm | - | 153 W/m² | - |
| 1778008929 | 24.44° C | 86% | 1009.7 hPa | 0 mm | - | 155 W/m² | - |
| 1778008628 | 24.44° C | 85% | 1009.8 hPa | 0 mm | - | 92 W/m² | - |
| 1778008326 | 25° C | 85% | 1009.8 hPa | 0 mm | - | 86 W/m² | - |
| 1778008022 | 25° C | 85% | 1009.6 hPa | 0 mm | - | 126 W/m² | - |
| 1778007722 | 25° C | 84% | 1009.8 hPa | 0 mm | - | 133 W/m² | - |
| 1778007419 | 25° C | 83% | 1009.7 hPa | 0 mm | - | 271 W/m² | - |
| 1778007115 | 25° C | 84% | 1009.6 hPa | 0 mm | - | 376 W/m² | - |
| 1778006811 | 25.56° C | 83% | 1010 hPa | 0 mm | - | 319 W/m² | - |
| 1778006509 | 25.56° C | 84% | 1009.5 hPa | 0 mm | - | 419 W/m² | - |
* Rain latest hour (hover to see other rain measurements)
** Current wind speed in m/s (hover to see current wind gust speed)